Terminal Aerodrome Forecast
Issued by NWS

Home | Current Version | Previous Version | Text Only | Print | Product List | Glossary Off
Versions: 1 2 3 4 5 6 7 8 9 10 11 12 13 14 15 16 17

000
FTUS43 KICT 241100
TAFCNU
TAF
KCNU 241135Z 2412/2512 16005KT P6SM SCT045 OVC300
     FM241500 21009KT P6SM SCT045 OVC300=

USA.gov is the U.S. government's official web portal to all federal, state and local government web resources and services.